KE5OYL Weather Reports


Display with metric or nautical units.
time (UTC)temp
F
wind
direction
speed
MPH
gust
MPH
rain 1hr
in
rain 24hr
in
rain mn
in
humidity
%
barometer
mb
20260503054738 64 116 2.0 2.0 0.00 0.00 0.00 57 1020.8
20260503054235 63 345 1.0 2.0 0.00 0.00 0.00 58 1020.7
20260503053732 63 28 0.0 1.0 0.00 0.00 0.00 59 1020.6
20260503053231 63 29 1.0 1.0 0.00 0.00 0.00 58 1020.7
20260503052727 63 51 2.0 2.0 0.00 0.00 0.00 58 1020.8
20260503052224 63 24 0.0 1.0 0.00 0.00 0.00 59 1020.7
20260503051719 64 34 1.0 2.0 0.00 0.00 0.00 58 1020.7
20260503051217 64 46 2.0 2.0 0.00 0.00 0.00 56 1020.7
20260503050713 64 36 1.0 2.0 0.00 0.00 0.00 55 1020.4
20260503050210 65 29 1.0 2.0 0.00 0.00 0.00 55 1020.5
20260503045707 64 17 0.0 1.0 0.00 0.00 0.00 55 1020.4
20260503045205 65 29 0.0 2.0 0.00 0.00 0.00 54 1020.5
20260503044701 65 27 2.0 2.0 0.00 0.00 0.00 54 1020.7
20260503044158 66 356 0.0 1.0 0.00 0.00 0.00 53 1020.7
20260503043655 66 297 2.0 3.0 0.00 0.00 0.00 52 1020.5
20260503043153 65 316 1.0 2.0 0.00 0.00 0.00 54 1020.5
20260503042648 65 18 1.0 1.0 0.00 0.00 0.00 53 1020.5
20260503042144 65 43 1.0 2.0 0.00 0.00 0.00 53 1020.6
20260503041635 66 29 0.0 1.0 0.00 0.00 0.00 52 1020.4
20260503041133 66 99 3.0 3.0 0.00 0.00 0.00 51 1020.5
20260503040630 66 268 2.0 3.0 0.00 0.00 0.00 51 1020.5
20260503040128 66 273 1.0 3.0 0.00 0.00 0.00 52 1020.4
20260503035624 66 20 0.0 1.0 0.00 0.00 0.00 53 1020.8
20260503035122 66 13 0.0 1.0 0.00 0.00 0.00 53 1020.6
20260503034619 66 26 1.0 2.0 0.00 0.00 0.00 53 1020.6
20260503034116 67 327 1.0 3.0 0.00 0.00 0.00 52 1020.5
20260503033613 67 232 3.0 5.0 0.00 0.00 0.00 51 1020.5
20260503033111 67 289 2.0 2.0 0.00 0.00 0.00 51 1020.6
20260503032609 67 320 1.0 2.0 0.00 0.00 0.00 51 1020.5
20260503032107 67 37 0.0 1.0 0.00 0.00 0.00 51 1020.6
20260503031604 67 55 2.0 3.0 0.00 0.00 0.00 51 1020.4
20260503031102 68 65 1.0 2.0 0.00 0.00 0.00 51 1020.3
20260503030557 68 29 0.0 1.0 0.00 0.00 0.00 50 1020.0
20260503030055 68 36 0.0 1.0 0.00 0.00 0.00 50 1020.3
20260503025551 68 66 2.0 2.0 0.00 0.00 0.00 49 1020.1
20260503025049 69 32 1.0 1.0 0.00 0.00 0.00 49 1020.2
20260503024545 69 33 1.0 2.0 0.00 0.00 0.00 48 1020.2
20260503024043 69 26 2.0 2.0 0.00 0.00 0.00 48 1020.1
20260503023539 69 35 1.0 2.0 0.00 0.00 0.00 47 1020.1
20260503023037 69 26 0.0 2.0 0.00 0.00 0.00 46 1020.0
20260503022532 69 32 1.0 2.0 0.00 0.00 0.00 45 1020.1
20260503022027 70 47 2.0 2.0 0.00 0.00 0.00 44 1019.9
20260503021524 70 41 1.0 2.0 0.00 0.00 0.00 43 1019.8
20260503021021 71 48 2.0 5.0 0.00 0.00 0.00 42 1020.0
20260503020518 72 77 3.0 3.0 0.00 0.00 0.00 38 1019.7
20260503020015 72 12 1.0 1.0 0.00 0.00 0.00 38 1019.7
20260503015512 73 44 1.0 2.0 0.00 0.00 0.00 37 1019.8
20260503015009 73 59 2.0 2.0 0.00 0.00 0.00 36 1019.5
20260503014505 73 1 1.0 2.0 0.00 0.00 0.00 37 1019.5
20260503014003 73 40 1.0 2.0 0.00 0.00 0.00 35 1019.5
20260503013500 73 346 0.0 1.0 0.00 0.00 0.00 36 1019.6
20260503012957 73 349 0.0 1.0 0.00 0.00 0.00 35 1019.4
20260503012455 73 5 1.0 1.0 0.00 0.00 0.00 35 1019.5
20260503011950 74 316 2.0 2.0 0.00 0.00 0.00 34 1019.4
20260503011448 74 353 0.0 3.0 0.00 0.00 0.00 34 1019.5
20260503010945 74 281 3.0 3.0 0.00 0.00 0.00 34 1019.5
20260503010441 74 315 2.0 3.0 0.00 0.00 0.00 34 1019.4
20260503005939 74 337 1.0 2.0 0.00 0.00 0.00 34 1019.4
20260503005436 74 309 3.0 3.0 0.00 0.00 0.00 34 1019.2
20260503004933 74 339 1.0 3.0 0.00 0.00 0.00 34 1019.3
20260503004429 75 303 2.0 3.0 0.00 0.00 0.00 33 1019.3
20260503003927 75 289 3.0 3.0 0.00 0.00 0.00 33 1019.2
20260503003424 75 212 4.0 6.0 0.00 0.00 0.00 32 1019.2
20260503002921 75 284 3.0 5.0 0.00 0.00 0.00 32 1019.5
20260503002418 75 277 3.0 5.0 0.00 0.00 0.00 32 1019.1
20260503001914 76 254 5.0 6.0 0.00 0.00 0.00 32 1019.0
20260503001411 75 326 2.0 3.0 0.00 0.00 0.00 32 1019.0
20260503000909 76 346 1.0 2.0 0.00 0.00 0.00 32 1019.2
20260503000407 77 313 2.0 5.0 0.00 0.00 0.00 31 1019.3
20260502235903 77 333 2.0 6.0 0.00 0.00 0.00 31 1019.2
20260502235359 77 13 1.0 2.0 0.00 0.00 0.00 31 1019.3
20260502234857 76 9 1.0 2.0 0.00 0.00 0.00 31 1019.3
20260502234353 76 280 3.0 5.0 0.00 0.00 0.00 31 1019.2
20260502233850 77 349 3.0 5.0 0.00 0.00 0.00 30 1019.5
20260502233346 75 280 4.0 6.0 0.00 0.00 0.00 31 1019.4
20260502232843 77 256 4.0 7.0 0.00 0.00 0.00 30 1019.3
20260502232339 77 8 0.0 3.0 0.00 0.00 0.00 30 1019.2
20260502231836 77 318 2.0 7.0 0.00 0.00 0.00 30 1019.6
20260502231334 77 334 3.0 6.0 0.00 0.00 0.00 30 1019.4
20260502230832 77 276 2.0 3.0 0.00 0.00 0.00 29 1019.4
20260502230330 78 286 6.0 8.0 0.00 0.00 0.00 29 1019.5
20260502225826 77 343 1.0 3.0 0.00 0.00 0.00 29 1019.6
20260502225323 76 36 2.0 5.0 0.00 0.00 0.00 28 1019.4
20260502224820 78 27 1.0 6.0 0.00 0.00 0.00 28 1019.5
20260502224316 77 8 1.0 3.0 0.00 0.00 0.00 28 1019.4
20260502223814 77 6 0.0 5.0 0.00 0.00 0.00 29 1019.5
20260502223312 77 356 4.0 8.0 0.00 0.00 0.00 28 1019.5
20260502222809 77 6 3.0 9.0 0.00 0.00 0.00 29 1019.5
20260502222306 78 333 1.0 7.0 0.00 0.00 0.00 30 1019.5
20260502221801 77 284 1.0 2.0 0.00 0.00 0.00 29 1019.4
20260502221252 76 295 3.0 7.0 0.00 0.00 0.00 30 1019.6
20260502220749 77 338 4.0 8.0 0.00 0.00 0.00 30 1019.6
20260502220245 78 314 3.0 5.0 0.00 0.00 0.00 28 1019.5
20260502215742 78 345 1.0 2.0 0.00 0.00 0.00 28 1019.5
20260502215239 76 272 1.0 2.0 0.00 0.00 0.00 28 1019.7
20260502214737 76 347 2.0 7.0 0.00 0.00 0.00 29 1019.9
20260502214235 76 311 5.0 8.0 0.00 0.00 0.00 29 1019.9
20260502213731 75 315 5.0 11.0 0.00 0.00 0.00 29 1020.0
20260502213228 77 259 10.0 13.0 0.00 0.00 0.00 29 1019.8
20260502212726 77 266 9.0 10.0 0.00 0.00 0.00 29 1020.0
20260502212224 77 353 1.0 5.0 0.00 0.00 0.00 30 1020.0
20260502211720 77 342 6.0 9.0 0.00 0.00 0.00 30 1020.0
20260502211217 77 29 1.0 5.0 0.00 0.00 0.00 30 1020.0
20260502210714 75 340 1.0 8.0 0.00 0.00 0.00 32 1020.1
20260502210211 77 336 3.0 6.0 0.00 0.00 0.00 30 1020.4
20260502205708 76 210 2.0 5.0 0.00 0.00 0.00 30 1020.2
20260502205205 75 3 1.0 8.0 0.00 0.00 0.00 30 1020.4
20260502204702 77 318 7.0 10.0 0.00 0.00 0.00 29 1020.7
20260502204200 75 15 5.0 6.0 0.00 0.00 0.00 30 1020.6
20260502203657 77 42 7.0 11.0 0.00 0.00 0.00 30 1020.6
20260502203155 77 30 5.0 7.0 0.00 0.00 0.00 30 1020.6
20260502202648 76 29 5.0 7.0 0.00 0.00 0.00 31 1020.5
20260502202147 77 27 3.0 7.0 0.00 0.00 0.00 31 1020.7
20260502201644 78 313 2.0 3.0 0.00 0.00 0.00 30 1021.0
20260502201140 77 321 3.0 5.0 0.00 0.00 0.00 32 1020.8
20260502200636 75 351 1.0 6.0 0.00 0.00 0.00 32 1020.9
20260502200133 75 320 5.0 14.0 0.00 0.00 0.00 31 1021.0
20260502195632 76 348 5.0 10.0 0.00 0.00 0.00 30 1020.9
20260502195127 74 350 2.0 5.0 0.00 0.00 0.00 33 1021.1
20260502194624 74 26 5.0 10.0 0.00 0.00 0.00 32 1021.0
20260502194121 74 61 2.0 7.0 0.00 0.00 0.00 31 1021.0
20260502193617 75 357 4.0 8.0 0.00 0.00 0.00 31 1021.3
20260502193114 76 314 2.0 5.0 0.00 0.00 0.00 30 1021.2
20260502192609 75 352 5.0 10.0 0.00 0.00 0.00 32 1021.1
20260502192108 75 295 5.0 8.0 0.00 0.00 0.00 30 1021.4
20260502191604 74 247 3.0 6.0 0.00 0.00 0.00 31 1021.6
20260502191101 75 292 5.0 8.0 0.00 0.00 0.00 31 1021.5
20260502190559 75 257 9.0 9.0 0.00 0.00 0.00 31 1021.3
20260502190050 73 20 6.0 13.0 0.00 0.00 0.00 32 1021.5
20260502185544 74 29 5.0 9.0 0.00 0.00 0.00 32 1021.6
20260502185042 73 272 5.0 7.0 0.00 0.00 0.00 32 1021.7
20260502184538 73 24 0.0 6.0 0.00 0.00 0.00 34 1021.8
20260502184034 75 27 5.0 9.0 0.00 0.00 0.00 31 1021.7
20260502183530 73 280 3.0 7.0 0.00 0.00 0.00 32 1021.9
20260502183027 75 12 1.0 1.0 0.00 0.00 0.00 33 1021.8
20260502182522 73 246 2.0 3.0 0.00 0.00 0.00 32 1021.9
20260502182018 74 236 4.0 7.0 0.00 0.00 0.00 33 1022.0
20260502181516 73 340 2.0 9.0 0.00 0.00 0.00 35 1022.0
20260502181015 73 20 5.0 7.0 0.00 0.00 0.00 33 1022.0
20260502180511 73 350 1.0 5.0 0.00 0.00 0.00 34 1022.2
20260502170430 71 33 1.0 7.0 0.00 0.00 0.00 37 1022.8
20260502163913 70 347 1.0 6.0 0.00 0.00 0.00 40 1023.1
20260502163404 69 334 3.0 7.0 0.00 0.00 0.00 42 1023.0
20260502162902 70 352 3.0 7.0 0.00 0.00 0.00 41 1023.0
20260502162358 70 13 3.0 8.0 0.00 0.00 0.00 42 1022.7
20260502161855 69 17 0.0 3.0 0.00 0.00 0.00 44 1022.8
20260502161351 69 346 3.0 7.0 0.00 0.00 0.00 42 1023.0
20260502160849 69 31 1.0 5.0 0.00 0.00 0.00 43 1023.0
20260502160348 68 19 0.0 3.0 0.00 0.00 0.00 45 1023.1
20260502152323 68 359 4.0 8.0 0.00 0.00 0.00 46 1022.8
20260502151820 66 356 2.0 5.0 0.00 0.00 0.00 47 1022.7
20260502151317 65 356 1.0 6.0 0.00 0.00 0.00 52 1022.9
20260502150814 65 0 1.0 5.0 0.00 0.00 0.00 56 1023.0
20260502150311 65 32 0.0 3.0 0.00 0.00 0.00 57 1022.8
20260502130659 57 275 5.0 6.0 0.00 0.00 0.00 80 1022.1
20260502130157 56 337 3.0 6.0 0.00 0.00 0.00 81 1022.2
20260502123642 56 354 1.0 5.0 0.00 0.00 0.00 79 1021.5
20260502123139 56 353 0.0 5.0 0.00 0.00 0.00 80 1021.6
20260502122635 56 285 3.0 6.0 0.00 0.00 0.00 80 1021.3
20260502122132 56 338 3.0 3.0 0.00 0.00 0.00 80 1021.2
20260502121630 56 356 0.0 2.0 0.00 0.00 0.00 80 1021.0
20260502121128 56 3 0.0 2.0 0.00 0.00 0.00 80 1020.8
20260502120624 55 327 3.0 3.0 0.00 0.00 0.00 80 1021.0
20260502120121 55 343 1.0 3.0 0.00 0.00 0.00 80 1020.9
20260502115619 55 349 2.0 2.0 0.00 0.00 0.00 80 1020.8
20260502115114 55 273 4.0 6.0 0.00 0.00 0.00 80 1020.5
20260502114611 55 291 4.0 6.0 0.00 0.00 0.00 79 1020.7
20260502114108 56 329 3.0 6.0 0.00 0.00 0.00 79 1020.5
20260502113605 56 342 1.0 5.0 0.00 0.00 0.00 78 1020.5
20260502113104 56 300 5.0 7.0 0.00 0.00 0.00 78 1020.5
20260502112601 56 314 4.0 8.0 0.00 0.00 0.00 78 1020.5
20260502112059 55 198 3.0 5.0 0.00 0.00 0.00 78 1020.2
20260502111556 55 9 0.0 1.0 0.00 0.00 0.00 79 1020.2
20260502111053 55 333 2.0 2.0 0.00 0.00 0.00 78 1020.0
20260502110551 55 329 1.0 2.0 0.00 0.00 0.00 78 1020.1
20260502110048 55 344 1.0 2.0 0.00 0.00 0.00 78 1020.0
20260502105545 55 351 0.0 2.0 0.00 0.00 0.00 78 1019.9
20260502105043 55 342 1.0 2.0 0.00 0.00 0.00 79 1019.9
20260502104539 55 324 1.0 3.0 0.00 0.00 0.00 79 1020.2
20260502104037 55 348 1.0 2.0 0.00 0.00 0.00 79 1020.1
20260502103535 55 345 1.0 2.0 0.00 0.00 0.00 79 1020.2
20260502103033 54 2 0.0 1.0 0.00 0.00 0.00 80 1020.4
20260502102529 54 15 1.0 1.0 0.00 0.00 0.00 80 1020.0
20260502102026 55 8 1.0 1.0 0.00 0.00 0.00 79 1020.0
20260502101524 55 7 1.0 1.0 0.00 0.00 0.00 78 1020.1
20260502101022 56 358 1.0 1.0 0.00 0.00 0.00 76 1020.0
20260502100520 56 4 0.0 2.0 0.00 0.00 0.00 75 1019.6
20260502091455 57 323 3.0 5.0 0.00 0.00 0.00 73 1019.6
20260502090952 57 344 2.0 3.0 0.00 0.00 0.00 74 1019.5
20260502090449 57 334 2.0 2.0 0.00 0.00 0.00 74 1019.6
20260502071343 57 338 0.0 0.0 0.00 0.00 0.00 75 1019.6
20260502070842 57 338 0.0 0.0 0.00 0.00 0.00 74 1019.5
20260502070339 57 338 1.0 2.0 0.00 0.00 0.00 74 1019.6
20260502065838 57 338 1.0 1.0 0.00 0.00 0.00 74 1019.7
20260502065335 57 338 1.0 1.0 0.00 0.00 0.00 75 1019.8
20260502064833 57 338 1.0 1.0 0.00 0.00 0.00 75 1020.0
20260502064331 58 338 0.0 1.0 0.00 0.00 0.00 75 1020.0
20260502063828 58 337 1.0 2.0 0.00 0.00 0.00 75 1019.8
20260502063326 58 338 1.0 1.0 0.00 0.00 0.00 74 1020.0
20260502062822 58 330 1.0 2.0 0.00 0.00 0.00 74 1019.9
20260502062320 58 319 1.0 2.0 0.00 0.00 0.00 74 1019.9
20260502061819 58 342 0.0 1.0 0.00 0.00 0.00 74 1019.9
20260502061316 58 327 1.0 2.0 0.00 0.00 0.00 73 1019.5
20260502060812 59 330 0.0 2.0 0.00 0.00 0.00 74 1019.6
20260502060307 59 296 1.0 5.0 0.00 0.00 0.00 73 1019.7
20260502055805 59 318 1.0 2.0 0.00 0.00 0.00 73 1019.7